DW6344 Weather Reports


Display with metric or nautical units.
time (UTC)temp
F
wind
direction
speed
MPH
gust
MPH
rain 1hr
in
rain 24hr
in
rain mn
in
humidity
%
barometer
mb
20260902164359 93 100 0.0 2.0 0.00 0.00 0.00 59 1014.8
20260902163858 94 9 0.0 2.0 0.00 0.00 0.00 59 1014.8
20260902163344 94 9 0.0 3.0 0.00 0.00 0.00 57 1014.9
20260902162839 94 65 0.0 4.0 0.00 0.00 0.00 55 1014.9
20260902162342 94 101 0.0 5.0 0.00 0.00 0.00 57 1014.9
20260902161844 94 123 0.0 3.0 0.00 0.00 0.00 57 1014.9
20260902161410 94 123 0.0 3.0 0.00 0.00 0.00 56 1015.0
20260902160847 93 194 0.0 3.0 0.00 0.00 0.00 56 1015.1
20260902160331 93 102 0.0 3.0 0.00 0.00 0.00 59 1015.1
20260902155858 93 119 0.0 3.0 0.00 0.00 0.00 58 1015.0
20260902155338 93 225 0.0 2.0 0.00 0.00 0.00 57 1015.0
20260902154847 93 131 0.0 2.0 0.00 0.00 0.00 60 1015.2
20260902154407 93 80 1.0 3.0 0.00 0.00 0.00 57 1015.2
20260902153857 93 45 1.0 3.0 0.00 0.00 0.00 57 1015.2
20260902153355 93 94 0.0 2.0 0.00 0.00 0.00 59 1015.2
20260902152900 93 132 0.0 2.0 0.00 0.00 0.00 57 1015.2
20260902152358 92 56 0.0 2.0 0.00 0.00 0.00 60 1015.2
20260902151840 92 92 1.0 5.0 0.00 0.00 0.00 57 1015.2
20260902151341 92 70 1.0 5.0 0.00 0.00 0.00 57 1015.2
20260902150832 92 84 0.0 2.0 0.00 0.00 0.00 58 1015.2
20260902150338 92 123 0.0 1.0 0.00 0.00 0.00 60 1015.2
20260902145842 91 183 0.0 2.0 0.00 0.00 0.00 58 1015.1
20260902145328 91 154 0.0 3.0 0.00 0.00 0.00 60 1015.2
20260902144842 91 165 0.0 3.0 0.00 0.00 0.00 61 1015.1
20260902144339 91 53 1.0 3.0 0.00 0.00 0.00 59 1015.1
20260902143843 90 65 1.0 3.0 0.00 0.00 0.00 61 1015.0
20260902143339 90 206 0.0 3.0 0.00 0.00 0.00 62 1015.1
20260902142832 89 196 1.0 3.0 0.00 0.00 0.00 62 1015.1
20260902142328 89 195 1.0 2.0 0.00 0.00 0.00 61 1015.1
20260902141844 89 184 1.0 2.0 0.00 0.00 0.00 64 1015.0
20260902141405 89 360 0.0 2.0 0.00 0.00 0.00 63 1014.9
20260902140847 88 360 0.0 2.0 0.00 0.00 0.00 64 1015.0
20260902140350 88 360 0.0 2.0 0.00 0.00 0.00 65 1014.8
20260902135834 87 59 0.0 2.0 0.00 0.00 0.00 68 1014.7
20260902135412 87 54 1.0 2.0 0.00 0.00 0.00 65 1014.7
20260902134901 87 298 0.0 3.0 0.00 0.00 0.00 67 1014.6
20260902134401 86 294 0.0 3.0 0.00 0.00 0.00 67 1014.5
20260902133841 86 268 0.0 2.0 0.00 0.00 0.00 70 1014.5
20260902133355 85 221 0.0 2.0 0.00 0.00 0.00 70 1014.4
20260902132831 85 209 0.0 2.0 0.00 0.00 0.00 70 1014.4
20260902132328 85 46 0.0 1.0 0.00 0.00 0.00 71 1014.3
20260902131832 84 46 0.0 1.0 0.00 0.00 0.00 75 1014.4
20260902131356 84 5 0.0 0.0 0.00 0.00 0.00 75 1014.4
20260902130844 83 360 0.0 0.0 0.00 0.00 0.00 76 1014.4
20260902130404 83 5 0.0 0.0 0.00 0.00 0.00 78 1014.5
20260902125851 82 5 0.0 1.0 0.00 0.00 0.00 78 1014.4
20260902125326 82 141 0.0 1.0 0.00 0.00 0.00 79 1014.5
20260902124832 81 145 0.0 1.0 0.00 0.00 0.00 81 1014.5
20260902124344 81 145 0.0 1.0 0.00 0.00 0.00 83 1014.5
20260902123844 80 145 0.0 1.0 0.00 0.00 0.00 84 1014.5
20260902123420 80 145 0.0 1.0 0.00 0.00 0.00 84 1014.4
20260902122853 79 145 0.0 1.0 0.00 0.00 0.00 86 1014.4
20260902122346 79 145 0.0 1.0 0.00 0.00 0.00 87 1014.5
20260902121841 78 145 0.0 1.0 0.00 0.00 0.00 88 1014.5
20260902121355 78 146 0.0 0.0 0.00 0.00 0.00 88 1014.4
20260902120857 78 146 0.0 1.0 0.00 0.00 0.00 89 1014.4
20260902120337 77 146 0.0 1.0 0.00 0.00 0.00 90 1014.5
20260902115842 77 146 0.0 1.0 0.00 0.00 0.00 90 1014.6
20260902115337 77 146 0.0 2.0 0.00 0.00 0.00 90 1014.6
20260902114858 77 130 0.0 3.0 0.00 0.00 0.00 90 1014.5
20260902114330 77 257 0.0 3.0 0.00 0.00 0.00 90 1014.5
20260902113843 76 117 0.0 0.0 0.00 0.00 0.00 90 1014.3
20260902113336 76 117 0.0 0.0 0.00 0.00 0.00 90 1014.4
20260902112906 76 117 0.0 0.0 0.00 0.00 0.00 90 1014.3
20260902112328 76 117 0.0 0.0 0.00 0.00 0.00 90 1014.3
20260902111846 76 117 0.0 0.0 0.00 0.00 0.00 90 1014.3
20260902111346 75 117 0.0 0.0 0.00 0.00 0.00 90 1014.3
20260902110901 75 117 0.0 0.0 0.00 0.00 0.00 90 1014.2
20260902110355 75 117 0.0 0.0 0.00 0.00 0.00 90 1014.2
20260902105845 75 117 0.0 0.0 0.00 0.00 0.00 90 1014.0
20260902105405 75 117 0.0 0.0 0.00 0.00 0.00 90 1014.0
20260902104834 75 117 0.0 0.0 0.00 0.00 0.00 90 1013.9
20260902104329 75 117 0.0 0.0 0.00 0.00 0.00 90 1014.0
20260902103858 75 117 0.0 0.0 0.00 0.00 0.00 90 1014.0
20260902103348 75 117 0.0 0.0 0.00 0.00 0.00 90 1014.0
20260902102845 75 117 0.0 0.0 0.00 0.00 0.00 90 1014.0
20260902102336 75 56 0.0 0.0 0.00 0.00 0.00 90 1013.9
20260902101903 75 56 0.0 0.0 0.00 0.00 0.00 90 1013.9
20260902101354 75 56 0.0 0.0 0.00 0.00 0.00 90 1014.0
20260902100848 75 56 0.0 0.0 0.00 0.00 0.00 90 1014.0
20260902100349 76 56 0.0 0.0 0.00 0.00 0.00 90 1014.0
20260902095924 76 56 0.0 0.0 0.00 0.00 0.00 90 1013.9
20260902095359 76 56 0.0 0.0 0.00 0.00 0.00 90 1013.8
20260902094859 76 56 0.0 0.0 0.00 0.00 0.00 89 1013.8
20260902094331 76 56 0.0 0.0 0.00 0.00 0.00 90 1013.7
20260902093830 76 56 0.0 0.0 0.00 0.00 0.00 90 1013.8
20260902093340 76 56 0.0 0.0 0.00 0.00 0.00 90 1013.8
20260902092835 76 56 0.0 0.0 0.00 0.00 0.00 90 1013.8
20260902092343 76 56 0.0 0.0 0.00 0.00 0.00 90 1013.7
20260902091828 76 56 0.0 0.0 0.00 0.00 0.00 90 1013.7
20260902091407 76 56 0.0 0.0 0.00 0.00 0.00 90 1013.7
20260902090843 76 56 0.0 0.0 0.00 0.00 0.00 90 1013.7
20260902090355 76 56 0.0 0.0 0.00 0.00 0.00 89 1013.8
20260902085856 76 56 0.0 0.0 0.00 0.00 0.00 89 1013.8
20260902085348 76 56 0.0 0.0 0.00 0.00 0.00 89 1013.8
20260902084850 76 56 0.0 0.0 0.00 0.00 0.00 89 1013.8
20260902084335 76 56 0.0 0.0 0.00 0.00 0.00 89 1013.8
20260902083842 76 56 0.0 0.0 0.00 0.00 0.00 89 1013.7
20260902083340 76 56 0.0 0.0 0.00 0.00 0.00 89 1013.8
20260902082844 76 56 0.0 0.0 0.00 0.00 0.00 89 1013.7
20260902082332 76 56 0.0 0.0 0.00 0.00 0.00 89 1013.8
20260902081917 76 56 0.0 0.0 0.00 0.00 0.00 89 1013.8
20260902081350 76 56 0.0 0.0 0.00 0.00 0.00 89 1013.7
20260902080839 77 56 0.0 0.0 0.00 0.00 0.00 89 1013.7
20260902080340 77 56 0.0 0.0 0.00 0.00 0.00 89 1013.6
20260902075831 77 56 0.0 0.0 0.00 0.00 0.00 89 1013.6
20260902075352 77 56 0.0 0.0 0.00 0.00 0.00 89 1013.6
20260902074855 77 56 0.0 0.0 0.00 0.00 0.00 89 1013.6
20260902074343 77 56 0.0 0.0 0.00 0.00 0.00 89 1013.4
20260902073843 77 56 0.0 0.0 0.00 0.00 0.00 89 1013.5
20260902073345 77 56 0.0 0.0 0.00 0.00 0.00 89 1013.6
20260902072844 77 56 0.0 0.0 0.00 0.00 0.00 89 1013.6
20260902072348 77 56 0.0 0.0 0.00 0.00 0.00 89 1013.6
20260902071836 77 56 0.0 0.0 0.00 0.00 0.00 89 1013.5
20260902071333 77 56 0.0 0.0 0.00 0.00 0.00 89 1013.5
20260902070844 77 56 0.0 0.0 0.00 0.00 0.00 89 1013.5
20260902070344 77 56 0.0 0.0 0.00 0.00 0.00 89 1013.5
20260902065840 77 56 0.0 0.0 0.00 0.00 0.00 89 1013.6
20260902065333 77 56 0.0 0.0 0.00 0.00 0.00 89 1013.6
20260902064839 77 56 0.0 0.0 0.00 0.00 0.00 89 1013.4
20260902064333 77 56 0.0 0.0 0.00 0.00 0.00 89 1013.4
20260902063836 77 56 0.0 0.0 0.00 0.00 0.00 89 1013.4
20260902063349 77 56 0.0 0.0 0.00 0.00 0.00 88 1013.4
20260902062854 77 56 0.0 0.0 0.00 0.00 0.00 89 1013.4
20260902062409 77 56 0.0 0.0 0.00 0.00 0.00 88 1013.3
20260902061919 77 56 0.0 0.0 0.00 0.00 0.00 88 1013.3
20260902061353 77 56 0.0 0.0 0.00 0.00 0.00 88 1013.4
20260902060845 77 56 0.0 0.0 0.00 0.00 0.00 88 1013.5
20260902060359 77 56 0.0 0.0 0.00 0.00 0.00 88 1013.5
20260902055854 77 56 0.0 0.0 0.00 0.00 0.00 88 1013.5
20260902055343 77 56 0.0 0.0 0.00 0.00 0.00 88 1013.6
20260902054843 77 56 0.0 0.0 0.00 0.00 0.00 88 1013.7
20260902054330 77 56 0.0 0.0 0.00 0.00 0.00 88 1013.7
20260902053831 77 56 0.0 0.0 0.00 0.00 0.00 88 1013.7
20260902053333 77 56 0.0 0.0 0.00 0.00 0.00 88 1013.7
20260902052838 77 56 0.0 0.0 0.00 0.00 0.00 88 1013.8
20260902052334 77 56 0.0 0.0 0.00 0.00 0.00 88 1013.8
20260902051843 77 56 0.0 0.0 0.00 0.00 0.00 88 1013.7
20260902051345 77 56 0.0 0.0 0.00 0.00 0.00 88 1013.6
20260902050904 77 56 0.0 0.0 0.00 0.00 0.00 88 1013.7
20260902050337 77 56 0.0 0.0 0.00 0.00 0.00 87 1013.7
20260902045848 77 56 0.0 0.0 0.00 0.00 0.00 87 1013.7
20260902045345 77 56 0.0 0.0 0.00 0.00 0.00 87 1013.8
20260902044901 77 56 0.0 0.0 0.00 0.00 0.00 87 1013.8
20260902044330 77 56 0.0 0.0 0.00 0.00 0.00 87 1013.8
20260902043831 77 56 0.0 0.0 0.00 0.00 0.00 87 1013.7
20260902043345 77 56 0.0 0.0 0.00 0.00 0.00 87 1013.7
20260902042841 77 56 0.0 0.0 0.00 0.00 0.00 87 1013.6
20260902042336 77 56 0.0 0.0 0.00 0.00 0.00 87 1013.5
20260902041839 77 56 0.0 0.0 0.00 0.00 0.00 86 1013.5
20260902041335 77 56 0.0 0.0 0.00 0.00 0.00 86 1013.4
20260902040831 77 56 0.0 0.0 0.00 0.00 0.00 86 1013.4
20260902040342 77 56 0.0 0.0 0.00 0.00 0.00 86 1013.3
20260902035837 77 56 0.0 0.0 0.00 0.00 0.00 86 1013.4
20260902035354 77 56 0.0 0.0 0.00 0.00 0.00 86 1013.3
20260902034845 77 56 0.0 0.0 0.00 0.00 0.00 86 1013.2
20260902034406 77 56 0.0 0.0 0.00 0.00 0.00 86 1013.2
20260902033832 77 56 0.0 0.0 0.00 0.00 0.00 86 1013.2
20260902033348 78 56 0.0 0.0 0.00 0.00 0.00 86 1013.1
20260902032849 78 56 0.0 0.0 0.00 0.00 0.00 85 1013.2
20260902032343 78 56 0.0 0.0 0.00 0.00 0.00 85 1013.1
20260902031829 78 56 0.0 0.0 0.00 0.00 0.00 85 1013.1
20260902031401 78 56 0.0 0.0 0.00 0.00 0.00 85 1013.1
20260902030831 78 56 0.0 0.0 0.00 0.00 0.00 84 1013.1
20260902030341 78 56 0.0 0.0 0.00 0.00 0.00 84 1013.2
20260902025843 78 56 0.0 0.0 0.00 0.00 0.00 84 1013.2
20260902025331 78 56 0.0 0.0 0.00 0.00 0.00 84 1013.2
20260902024845 78 56 0.0 0.0 0.00 0.00 0.00 84 1013.3
20260902024353 78 56 0.0 0.0 0.00 0.00 0.00 83 1013.2
20260902023857 78 56 0.0 0.0 0.00 0.00 0.00 83 1013.2
20260902023341 78 56 0.0 0.0 0.00 0.00 0.00 83 1013.1
20260902022831 78 56 0.0 0.0 0.00 0.00 0.00 83 1013.2
20260902022336 78 56 0.0 0.0 0.00 0.00 0.00 83 1013.3
20260902021849 78 56 0.0 0.0 0.00 0.00 0.00 83 1013.2
20260902021334 78 56 0.0 0.0 0.00 0.00 0.00 82 1013.2
20260902020847 78 56 0.0 0.0 0.00 0.00 0.00 82 1013.2
20260902020339 79 56 0.0 0.0 0.00 0.00 0.00 82 1013.1
20260902015844 79 56 0.0 0.0 0.00 0.01 0.00 81 1013.1
20260902015340 79 56 0.0 0.0 0.00 0.01 0.00 81 1013.0
20260902014900 79 56 0.0 0.0 0.00 0.01 0.00 81 1013.1
20260902014404 79 56 0.0 0.0 0.00 0.01 0.00 80 1013.0
20260902013839 79 56 0.0 0.0 0.00 0.01 0.00 80 1012.9
20260902013340 79 56 0.0 0.0 0.00 0.01 0.00 80 1012.9
20260902012834 79 56 0.0 0.0 0.00 0.01 0.00 79 1012.8
20260902012333 79 56 0.0 0.0 0.00 0.01 0.00 79 1012.7
20260902011909 79 56 0.0 0.0 0.00 0.01 0.00 79 1012.6
20260902011341 80 56 0.0 0.0 0.00 0.01 0.00 78 1012.5
20260902010918 80 56 0.0 0.0 0.00 0.01 0.00 78 1012.5
20260902010350 80 56 0.0 0.0 0.00 0.01 0.00 77 1012.4
20260902005844 80 56 0.0 0.0 0.00 0.10 0.00 77 1012.4
20260902005339 80 56 0.0 0.0 0.00 0.10 0.00 76 1012.4
20260902004914 80 56 0.0 0.0 0.00 0.10 0.00 76 1012.3
20260902004343 81 56 0.0 0.0 0.00 0.10 0.00 75 1012.3
20260902003852 81 56 0.0 0.0 0.00 0.10 0.00 75 1012.2
20260902003351 81 56 0.0 0.0 0.00 0.10 0.00 74 1012.1
20260902002847 81 56 0.0 0.0 0.00 0.10 0.00 74 1012.1
20260902002356 82 56 0.0 0.0 0.00 0.10 0.00 73 1012.0
20260902001832 82 56 0.0 0.0 0.00 0.10 0.00 73 1011.9
20260902001416 82 56 0.0 0.0 0.00 0.10 0.00 73 1012.0
20260902000851 83 56 0.0 0.0 0.00 0.10 0.00 72 1012.0
20260902000333 83 56 0.0 0.0 0.00 0.10 0.00 72 1012.1
20260901235909 83 56 0.0 0.0 0.00 0.10 0.00 71 1012.1
20260901235327 84 56 0.0 0.0 0.00 0.10 0.00 70 1012.0
20260901234858 84 56 0.0 0.0 0.00 0.10 0.00 70 1012.1
20260901234344 84 56 0.0 0.0 0.00 0.10 0.00 70 1012.1
20260901233847 85 56 0.0 0.0 0.00 0.10 0.00 70 1012.1
20260901233340 85 56 0.0 0.0 0.00 0.10 0.00 69 1012.3
20260901232832 86 56 0.0 0.0 0.00 0.10 0.00 69 1012.3
20260901232343 86 56 0.0 0.0 0.00 0.10 0.00 69 1012.2
20260901231846 86 56 0.0 0.0 0.00 0.10 0.00 68 1012.4
20260901231340 87 56 0.0 0.0 0.00 0.10 0.00 67 1012.4
20260901230852 87 56 0.0 0.0 0.00 0.10 0.00 65 1012.4
20260901230351 87 56 0.0 0.0 0.00 0.10 0.00 65 1012.5
20260901225851 88 56 0.0 0.0 0.00 0.10 0.00 66 1012.5
20260901225328 88 56 0.0 0.0 0.00 0.10 0.00 65 1012.5
20260901224838 88 56 0.0 0.0 0.00 0.10 0.00 64 1012.5
20260901224336 89 56 0.0 0.0 0.00 0.10 0.00 61 1012.6
20260901223908 89 56 0.0 0.0 0.00 0.10 0.00 60 1012.5
20260901223335 90 56 0.0 0.0 0.00 0.10 0.00 59 1012.6
20260901222833 90 56 0.0 0.0 0.00 0.10 0.00 58 1012.7
20260901222336 91 56 0.0 0.0 0.00 0.10 0.00 58 1012.7
20260901221839 91 56 0.0 0.0 0.00 0.10 0.00 57 1012.6
20260901221337 92 56 0.0 0.0 0.00 0.10 0.00 57 1012.7
20260901220851 92 56 0.0 0.0 0.00 0.10 0.00 53 1012.7
20260901220343 92 56 0.0 0.0 0.00 0.10 0.00 52 1012.6
20260901215841 93 56 0.0 2.0 0.00 0.10 0.00 49 1012.6
20260901215351 93 56 0.0 2.0 0.00 0.10 0.00 52 1012.7
20260901214852 93 41 0.0 2.0 0.00 0.10 0.00 49 1012.6
20260901214341 93 41 0.0 2.0 0.00 0.10 0.00 50 1012.7
20260901213839 93 38 0.0 2.0 0.00 0.10 0.00 52 1012.6
20260901213358 93 39 0.0 2.0 0.00 0.10 0.00 45 1012.6
20260901212906 93 38 0.0 2.0 0.00 0.10 0.00 47 1012.7
20260901212342 94 51 0.0 0.0 0.00 0.10 0.00 47 1012.7
20260901211849 94 51 0.0 1.0 0.00 0.10 0.00 44 1012.7
20260901211340 95 51 0.0 1.0 0.00 0.10 0.00 43 1012.8
20260901210847 95 51 0.0 0.0 0.00 0.10 0.00 45 1012.8
20260901210344 96 51 0.0 1.0 0.00 0.10 0.00 42 1012.9
20260901205837 96 51 0.0 1.0 0.00 0.10 0.00 39 1012.8
20260901205338 97 51 0.0 2.0 0.00 0.10 0.00 39 1012.9
20260901204835 97 51 1.0 2.0 0.00 0.10 0.00 39 1012.9
20260901204338 97 52 0.0 3.0 0.00 0.10 0.00 42 1012.9
20260901203900 98 50 0.0 3.0 0.00 0.10 0.00 39 1012.8
20260901203400 98 77 0.0 2.0 0.00 0.10 0.00 41 1012.9
20260901202851 98 77 0.0 1.0 0.00 0.10 0.00 38 1012.8
20260901202330 98 76 0.0 2.0 0.00 0.10 0.00 39 1012.8
20260901201836 98 77 1.0 2.0 0.00 0.10 0.00 37 1012.8
20260901201359 98 77 0.0 2.0 0.00 0.10 0.00 40 1012.9
20260901200840 98 77 0.0 2.0 0.00 0.10 0.00 45 1012.9
20260901200356 98 77 0.0 2.0 0.00 0.10 0.00 44 1012.9
20260901195836 98 77 0.0 4.0 0.00 0.10 0.00 43 1012.9
20260901195340 97 77 1.0 4.0 0.00 0.10 0.00 44 1012.9
20260901194836 97 61 0.0 2.0 0.00 0.10 0.00 45 1012.9
20260901194343 97 61 0.0 2.0 0.00 0.10 0.00 44 1013.0
20260901193911 97 96 0.0 2.0 0.00 0.10 0.00 44 1013.1
20260901193355 96 219 0.0 2.0 0.00 0.10 0.00 41 1013.1
20260901192832 96 219 0.0 3.0 0.00 0.10 0.00 46 1013.1
20260901192400 96 41 0.0 3.0 0.00 0.10 0.00 44 1013.0
20260901191900 96 69 1.0 2.0 0.00 0.10 0.00 45 1013.1
20260901191352 95 69 0.0 3.0 0.00 0.10 0.00 46 1013.2
20260901190841 95 45 1.0 3.0 0.00 0.10 0.00 45 1013.3
20260901190353 95 49 1.0 3.0 0.00 0.10 0.00 47 1013.5
20260901185847 95 53 0.0 2.0 0.00 0.10 0.00 49 1013.5
20260901185329 96 52 0.0 2.0 0.00 0.10 0.00 46 1013.5
20260901184833 96 52 1.0 2.0 0.00 0.10 0.00 48 1013.5
20260901184338 95 53 0.0 2.0 0.00 0.10 0.00 48 1013.3
20260901183857 95 83 0.0 2.0 0.00 0.10 0.00 46 1013.4
20260901183353 95 94 1.0 3.0 0.00 0.10 0.00 46 1013.4
20260901182847 95 94 0.0 3.0 0.00 0.10 0.00 47 1013.5
20260901182344 95 355 0.0 2.0 0.00 0.10 0.00 47 1013.4
20260901181837 95 355 0.0 2.0 0.00 0.10 0.00 46 1013.4
20260901181347 95 355 0.0 3.0 0.00 0.10 0.00 42 1013.5
20260901180842 95 348 1.0 3.0 0.00 0.10 0.00 43 1013.5
20260901180331 95 355 1.0 3.0 0.00 0.10 0.00 47 1013.5
20260901175830 95 79 1.0 3.0 0.00 0.10 0.00 47 1013.7
20260901175343 95 79 1.0 3.0 0.00 0.10 0.00 47 1013.7
20260901174846 94 85 0.0 4.0 0.00 0.10 0.00 47 1013.7
20260901174407 94 252 1.0 4.0 0.00 0.10 0.00 48 1013.8
20260901173859 94 261 1.0 3.0 0.00 0.10 0.00 45 1013.7
20260901173405 94 246 1.0 3.0 0.00 0.10 0.00 50 1013.8
20260901172843 94 82 1.0 3.0 0.00 0.10 0.00 50 1013.9
20260901172340 94 82 1.0 3.0 0.00 0.10 0.00 49 1013.9
20260901171831 94 5 1.0 3.0 0.00 0.10 0.00 47 1013.8
20260901171404 94 37 1.0 3.0 0.00 0.10 0.00 51 1013.8
20260901170904 94 44 0.0 1.0 0.00 0.10 0.00 52 1013.8
20260901170349 94 44 0.0 2.0 0.00 0.10 0.00 51 1013.8
20260901165827 94 44 0.0 2.0 0.00 0.10 0.00 53 1013.9
20260901165329 93 44 0.0 2.0 0.00 0.10 0.00 54 1014.0
20260901164858 93 36 0.0 1.0 0.00 0.10 0.00 55 1014.0